Volver al catálogo

NOAA 16 DEB

ActivoSSO
NORAD 41283·DEBRIS·🇺🇸 United States

Lanzado Sep 21, 2000 desde Vandenberg Space Force Base

Loading…

Próximos Pases (próximas 24 horas)

TLE

ActualizadoSource: Space-Track

Época: Sep 12, 2026, 03:52 UTC

1 41283U 00055GK  26255.16126385  .00001476  00000-0  85238-3 0  9997
2 41283  98.8441 232.3789 0060477 112.0794 248.6813 14.09649231548891

Sigue NOAA 16 DEB en tiempo real con AllMySat

Download on the App Store